Probability
0 0 0 0 0 0 0 0 0 0 0 0 0 0 0 0 0 0 0 0 0 0 0 0 0 0 0 0 0 0 0 0 0 0 0 0 0 0 0 0 0 0 0 0 0 0 0 0 0
0 0 0 0 0 0 0 0 0 0 0 0 0 0 0 0 0 0 0 0 0 0 0 0 0 0 0 0 0 0 0 0 0 0 0 0 0 0 0 0 0 0 0 0 0 0 0 0 0
0 0 0 0 0 0 0 0 0 0 0 0 0 0 0 0 0 0 0 0 0 0 0 0 0 0 0 0 0 0 0 0 0 0 0 0 0 0 0 0 0 0 0 0 0 0 0 0 0
0 0 0 0 0 0 0 0 0 0 0 0 0 0 0 0 0 0 0 0 0 0 0 0 0 0 0 0 0 0 0 0 0 0 0 0 0 0 0 0 0 0 0 0 0 0 0 0 0
0 0 0 0 0 0 0 0 0 0 0 0 0 0 0 0 0 0 0 0 0 0 0 0 0 0 0 0 0 0 0 0 0 0 0 0 0 0 0 0 0 0 0 0 0 0 0 0 0
0 0 0 0 0 0 0 0 0 0 0 0 0 0 0 0 0 0 0 0 0 0 0 0 0 0 0 0 0 0 0 0 0 0 0 0 0 0 0 0 0 0 0 0 0 0 0 0 0
0 0 0 0 0 0 0 0 0 0 0 0 0 0 0 0 0 0 0 0 0 0 0 0 0 0 0 0 0 0 0 0 0 0 0 0 0 0 0 0 0 0 0 0 0 0 0 0 0
0 0 0 0 0 0 0 0 0 0 0 0 0 0 0 0 0 0 0 0 0 0 0 0 0 0 0 0 0 0 0 0 0 0 0 0 0 0 0 0 0 0 0 0 0 0 0 0 0
0 0 0 0 0 0 0 0 0 0 0 0 0 0 0 0 0 0 0 0 0 0 0 0 0 0 0 0 0 0 0 0 0 0 0 0 0 0 0 0 0 0 0 0 0 0 0 0 0
0 0 0 0 0 0 0 0 0 0 0 0 0 0 0 0 0 0 0 0 0 0 0 0 0 0 0 0 0 0 0 0 0 0 0 0 0 0 0 0 0 0 0 0 0 0 0 0 0
0 0 0 0 0 0 0 0 0 0 0 0 0 0 0 0 0 0 0 0 0 0 0 0 0 0 0 0 0 0 0 0 0 0 0 0 0 0 0 0 0 0 0 0 0 0 0 0 0
0 0 0 0 0 0 0 0 0 0 0 0 0 0 0 0 0 0 0 0 0 0 0 0 0 0 0 0 0 0 0 0 0 0 0 0 0 0 0 0 0 0 0 0 0 0 0 0 0
0 0 0 0 0 0 0 0 0 0 0 0 0 0 0 0 0 0 0 0 0 0 0 0 0 0 0 0 0 0 0 0 0 0 0 0 0 0 0 0 0 0 0 0 0 0 0 0 0
0 0 0 0 0 0 0 0 0 0 0 0 0 0 0 0 0 0 0 0 0 0 0 0 0 0 0 0 0 0 0 0 0 0 0 0 0 0 0 0 0 0 0 0 0 0 0 0 0
0 0 0 0 0 0 0 0 0 0 0 0 0 0 0 0 0 0 0 0 0 0 0 0 0 0 0 0 0 0 0 0 0 0 0 0 0 0 0 0 0 0 0 0 0 0 0 0 0
0 0 0 0 0 0 0 0 0 0 0 0 0 0 0 0 0 0 0 0 0 0 0 0 0 0 0 0 0 0 0 0 0 0 0 0 0 0 0 0 0 0 0 0 0 0 0 0 0
0 0 0 0 0 0 0 0 0 0 0 0 0 0 0 0 0 0 0 0 0 0 0 0 0 0 0 0 0 0 0 0 0 0 0 0 0 0 0 0 0 0 0 0 0 0 0 0 0
0 0 0 0 0 0 0 0 0 0 0 0 0 0 0 0 0 0 0 0 0 0 0 0 0 0 0 0 0 0 0 0 0 0 0 0 0 0 0 0 0 0 0 0 0 0 0 0 0
0 0 0 0 0 0 0 0 0 0 0 0 0 0 0 0 0 0 0 0 0 0 0 0 0 0 0 0 0 0 0 0 0 0 0 0 0 0 0 0 0 0 0 0 0 0 0 0 0
0 0 0 0 0 0 0 0 0 0 0 0 0 0 0 0 0 0 0 0 0 0 0 0 0 0 0 0 0 0 0 0 0 0 0 0 0 0 0 0 0 0 0 0 0 0 0 0 0
0 0 0 0 0 0 0 0 0 0 0 0 0 0 0 0 0 0 0 0 0 0 0 0 0 0 0 0 0 0 0 0 0 0 0 0 0 0 0 0 0 0 0 0 0 0 0 0 0
0 0 0 0 0 0 0 0 0 0 0 0 0 0 0 0 0 0 0 0 0 0 0 0 0 0 0 0 0 0 0 0 0 0 0 0 0 0 0 0 0 0 0 0 0 0 0 0 0
0 0 0 0 0 0 0 0 0 0 0 0 0 0 0 0 0 0 0 0 0 0 0 0 0 0 0 0 0 0 0 0 0 0 0 0 0 0 0 0 0 0 0 0 0 0 0 0 0
0 0 0 0 0 0 0 0 0 0 0 0 0 0 0 0 0 0 0 0 0 0 0 0 0 0 0 0 0 0 0 0 0 0 0 0 0 0 0 0 0 0 0 0 0 0 0 0 0
0 0 0 0 0 0 0 0 0 0 0 0 0 0 0 0 0 0 0 0 0 0 0 0 0 0 0 0 0 0 0 0 0 0 0 0 0 0 0 0 0 0 0 0 0 0 0 0 0
0 0 0 0 0 0 0 0 0 0 0 0 0 0 0 0 0 0 0 0 0 0 0 0 0 0 0 0 0 0 0 0 0 0 0 0 0 0 0 0 0 0 0 0 0 0 0 0 0
0 0 0 0 0 0 0 0 0 0 0 0 0 0 0 0 0 0 0 0 0 0 0 0 0 0 0 0 0 0 0 0 0 0 0 0 0 0 0 0 0 0 0 0 0 0 0 0 0
0 0 0 0 0 0 0 0 0 0 0 0 0 0 0 0 0 0 0 0 0 0 0 0 0 0 0 0 0 0 0 0 0 0 0 0 0 0 0 0 0 0 0 0 0 0 0 0 0
0 0 0 0 0 0 0 0 0 0 0 0 0 0 0 0 0 0 0 0 0 0 0 0 0 0 0 0 0 0 0 0 0 0 0 0 0 0 0 0 0 0 0 0 0 0 0 0 0
0 0 0 0 0 0 0 0 0 0 0 0 0 0 0 0 0 0 0 0 0 0 0 0 0 0 0 0 0 0 0 0 0 0 0 0 0 0 0 0 0 0 0 0 0 0 0 0 0
Wind_Speed
9 6 2 5 7 5 2 3 4 3 3 2 5 10 8 5 3 4 3 9 11 9 7 8 11 14 14 14 14 13 14 15 15 15 16 16 17 17 17 17 17 18 18 19 19 19 19 18 18
5 4 5 6 5 1 4 3 3 3 5 5 6 7 7 4 4 7 5 9 11 9 7 8 11 13 14 14 14 14 14 14 15 15 16 16 17 17 17 17 17 17 17 18 18 18 17 18 18
5 3 4 5 3 4 3 3 5 3 2 5 6 5 6 5 5 4 8 12 10 8 7 8 11 14 15 14 14 14 14 14 15 15 16 16 17 17 16 16 16 17 17 17 17 16 17 17 18
4 5 5 4 3 4 6 6 6 5 3 5 6 5 3 2 5 7 12 12 11 8 7 8 12 14 15 15 15 14 14 14 14 15 15 16 16 16 15 16 16 16 16 16 16 16 15 16 17
4 4 3 1 4 3 3 6 6 7 4 4 6 5 2 3 10 14 12 12 12 8 6 8 11 12 14 14 15 14 14 14 14 14 15 15 15 15 15 15 15 15 15 15 15 14 14 15 16
4 4 3 3 4 2 3 5 5 5 4 5 6 5 2 4 11 12 12 11 10 9 7 7 10 11 12 13 13 13 14 14 14 14 14 14 14 14 14 14 14 15 14 14 14 13 13 14 14
3 3 4 4 3 3 4 5 7 7 6 6 8 7 4 5 8 11 11 10 9 8 7 6 6 9 11 12 12 12 12 12 13 13 13 13 13 13 13 12 13 14 13 13 13 12 12 12 13
3 3 3 3 4 5 3 4 4 8 6 5 7 10 8 8 9 11 11 10 9 7 7 6 6 6 7 8 11 12 11 11 12 12 12 11 11 12 11 10 12 13 12 12 11 11 10 11 11
2 3 4 5 6 6 3 4 2 3 6 4 3 7 9 13 13 13 10 8 8 8 6 6 7 7 7 7 9 10 10 11 10 9 11 8 5 6 6 8 10 11 11 10 9 9 8 8 9
3 4 7 5 5 6 5 5 7 5 4 3 4 4 12 14 15 15 14 12 11 10 8 7 7 8 7 6 6 5 5 5 5 4 5 4 4 4 5 8 9 9 8 8 7 6 5 5 3
3 6 5 4 3 4 6 6 5 10 4 7 9 13 16 13 14 14 13 13 12 11 10 8 8 8 7 6 5 3 3 3 4 5 4 4 4 3 3 3 4 4 4 3 3 3 2 1 1
3 5 4 4 2 3 7 7 5 6 7 9 15 21 18 16 16 16 15 13 11 11 10 9 9 8 7 7 5 4 3 3 3 4 5 4 3 3 3 2 2 2 1 2 1 1 1 1 1
5 5 4 3 2 2 5 5 6 5 1 8 13 16 17 17 13 11 11 11 11 11 11 10 10 9 8 7 5 5 5 4 4 4 5 5 4 4 3 2 2 2 2 2 2 1 1 0 1
6 4 5 4 2 2 5 3 5 5 5 12 15 16 15 15 13 10 10 11 11 12 11 10 11 10 9 7 6 6 5 5 4 4 6 6 5 5 4 3 3 3 2 2 2 2 1 1 1
1 1 5 4 3 3 5 2 6 5 9 13 14 13 13 12 12 13 14 13 13 12 11 11 11 10 10 9 7 6 5 5 5 5 5 6 5 5 4 4 3 3 3 3 2 1 1 1 2
2 3 5 6 4 3 8 8 8 6 11 12 11 10 11 12 13 12 12 12 12 11 12 11 10 10 10 8 7 5 5 5 5 4 4 6 6 6 5 4 3 3 3 2 2 2 1 2 2
4 7 8 6 4 4 6 7 6 7 11 12 11 11 11 11 11 11 12 13 13 14 13 12 10 11 10 8 6 6 5 5 5 4 4 5 6 6 4 4 3 4 3 2 2 2 1 2 3
9 7 7 9 5 5 6 7 5 6 10 11 11 10 11 13 16 13 13 13 13 13 13 13 12 11 9 7 5 4 4 4 4 4 5 6 5 6 5 4 4 4 3 2 2 2 2 2 2
6 7 7 7 5 6 8 8 8 6 7 8 9 10 12 14 12 10 11 11 11 12 13 14 13 12 9 7 6 6 5 4 4 4 6 6 6 6 5 4 4 4 4 4 3 2 2 2 1
4 5 6 2 2 5 6 9 7 6 8 10 12 12 13 11 8 9 10 11 13 15 15 15 15 14 12 9 7 4 4 3 4 4 5 6 6 6 5 5 4 4 3 3 3 3 1 2 2
8 8 7 5 1 1 3 6 7 7 6 6 8 9 10 12 12 11 10 11 11 13 15 13 14 13 13 10 6 4 3 3 3 4 4 5 6 6 5 5 4 4 4 4 4 4 4 2 2
10 8 7 6 5 4 6 6 9 8 7 9 10 9 10 10 9 9 10 10 10 11 10 11 13 12 12 12 10 9 7 6 6 4 3 3 4 4 4 4 4 4 3 3 3 3 3 3 2
6 6 6 6 5 3 3 4 9 4 8 12 12 12 11 9 9 9 9 8 7 6 7 8 10 11 12 12 12 11 7 5 4 4 4 3 2 2 3 3 3 3 2 2 2 2 2 2 2
5 6 4 3 3 6 9 7 9 7 10 9 11 11 11 8 7 6 5 5 4 3 4 6 8 10 11 13 12 12 10 8 7 5 5 3 2 2 2 3 3 2 2 2 1 1 1 1 1
8 8 4 3 4 8 4 6 11 8 8 9 11 11 9 8 8 7 6 6 5 5 4 5 8 8 10 12 12 11 10 10 9 7 6 5 3 2 3 3 3 3 2 2 2 2 2 1 0
11 12 10 9 8 4 3 9 10 5 3 4 5 6 7 7 7 7 6 5 5 5 5 5 7 7 8 10 9 8 9 6 5 6 6 5 4 3 4 5 5 4 4 4 3 3 3 2 2
10 8 6 6 3 4 6 7 10 4 3 2 4 7 9 8 7 6 5 5 4 4 4 5 6 6 7 8 9 8 9 8 8 8 7 6 5 5 6 6 6 6 6 5 4 4 3 3 3
9 10 6 6 7 6 5 6 7 7 10 8 9 10 9 7 7 6 5 4 4 4 3 4 6 7 7 8 8 8 9 9 9 9 8 7 6 6 7 6 6 6 6 5 5 4 4 4 3
6 7 7 6 6 7 5 9 9 11 12 13 13 10 10 9 8 7 5 5 5 4 5 5 6 7 8 9 10 11 10 10 9 9 8 7 7 6 7 6 6 6 5 5 5 5 4 4 4
5 9 10 9 7 5 4 9 4 5 6 8 10 9 9 8 7 7 6 6 5 5 5 6 6 7 8 9 10 11 10 10 10 9 7 7 7 6 6 6 6 6 5 5 5 5 4 4 4
Wind_Direction
340 347 48 54 51 48 268 251 180 135 86 73 86 91 96 88 131 147 116 131 128 130 126 121 121 119 117 114 110 106 101 99 97 96 94 93 91 89 86 85 85 84 84 83 82 80 76 73 72
338 5 47 57 81 20 276 268 164 155 155 134 87 84 78 70 79 108 121 136 129 129 126 123 122 122 120 116 112 108 104 101 100 99 97 95 93 90 87 87 87 86 85 85 83 80 75 72 71
350 46 72 71 118 191 227 217 162 137 139 104 80 68 100 121 120 124 142 137 125 121 121 125 125 126 122 119 115 111 109 105 101 100 98 96 94 92 89 88 88 87 86 85 84 79 75 72 72
43 39 55 78 243 232 193 200 167 124 79 73 99 72 70 128 145 129 135 130 122 120 123 127 125 127 125 122 119 116 113 107 103 100 99 97 96 94 93 91 89 87 86 85 83 79 75 72 72
58 69 61 343 259 266 186 190 164 131 125 96 100 96 37 2 117 124 131 128 127 125 122 126 123 127 128 126 122 119 115 110 106 103 100 99 98 98 96 95 94 90 88 86 84 79 75 73 72
53 71 107 236 258 261 205 199 148 131 127 111 104 101 81 121 123 132 131 127 128 128 121 119 120 123 126 126 123 120 116 114 111 107 104 101 100 101 100 98 97 94 90 87 85 79 75 72 68
106 115 180 210 240 246 212 179 154 145 143 153 129 110 130 158 138 132 128 125 124 124 120 114 116 119 120 122 120 117 114 114 113 110 105 99 98 98 97 97 98 97 94 91 86 80 74 69 64
130 122 198 210 203 235 211 153 161 145 152 136 126 140 167 182 142 128 124 124 125 126 128 124 116 115 117 120 120 118 115 114 113 112 107 101 98 97 93 93 99 99 97 94 89 82 73 64 59
96 101 214 215 198 224 207 142 122 130 114 81 114 168 166 151 136 131 129 129 137 143 144 139 131 128 126 127 129 124 121 122 121 119 116 106 97 93 92 99 102 103 101 99 93 84 69 54 45
107 181 224 221 204 203 192 162 153 106 98 83 57 90 133 144 145 148 153 156 159 162 164 158 149 145 140 137 134 130 129 131 129 130 123 115 114 109 106 104 107 106 104 102 97 83 60 48 31
175 208 238 264 244 190 170 165 151 129 167 181 163 152 150 155 157 161 165 166 167 166 167 169 162 157 150 144 150 143 137 141 143 146 138 128 120 114 107 104 104 106 103 88 82 67 50 55 50
217 247 241 258 261 177 174 161 150 165 202 185 164 157 160 167 170 172 171 171 167 168 173 171 167 163 159 156 159 157 156 161 162 166 156 144 139 141 145 143 149 148 138 137 120 104 91 79 75
228 254 268 262 263 194 157 169 167 195 190 140 147 157 169 176 178 176 172 170 168 173 175 174 169 169 166 163 167 168 171 177 175 169 168 161 156 162 166 169 174 179 174 171 174 186 188 192 315
217 240 276 275 247 189 156 181 149 198 134 139 155 169 179 181 178 173 173 176 177 177 175 173 172 172 168 170 172 174 176 176 174 174 176 170 164 167 171 175 182 190 188 184 182 194 201 242 273
203 228 287 262 221 199 132 168 207 180 143 153 170 178 184 187 184 187 184 182 182 180 176 174 175 172 172 173 174 172 175 171 174 179 178 175 171 171 171 174 184 192 183 174 171 186 197 252 271
125 165 223 250 199 184 147 210 231 163 154 169 181 186 191 197 198 196 190 185 184 180 179 178 175 173 174 173 172 170 172 172 177 178 177 180 177 174 170 176 190 184 170 169 177 190 224 259 268
176 193 204 236 213 172 167 214 231 171 169 180 189 194 198 202 208 205 196 190 187 186 183 180 176 177 176 173 170 169 168 174 177 175 178 184 181 176 173 183 190 175 172 184 190 201 210 257 272
188 182 188 204 210 168 191 228 235 185 185 192 195 199 202 206 211 204 199 193 188 187 185 183 181 179 173 168 162 161 169 177 178 181 187 186 184 181 176 182 188 176 179 193 197 214 219 246 268
168 171 189 208 209 170 203 226 233 202 200 206 208 207 209 215 215 203 197 190 184 184 184 186 185 182 175 175 178 178 183 183 186 187 187 187 186 185 182 183 186 184 194 204 200 197 228 252 232
203 197 199 221 196 179 213 240 247 216 210 207 205 209 211 215 211 203 196 188 186 187 187 187 188 185 184 186 183 174 168 178 186 188 192 191 191 191 189 191 192 193 197 205 199 186 199 242 190
224 205 194 183 113 130 165 264 253 246 234 232 224 217 212 204 202 198 193 193 188 189 190 189 189 187 186 176 167 155 163 173 187 194 196 199 197 195 193 196 190 191 195 209 206 193 200 234 226
223 213 188 167 148 212 180 228 257 231 235 231 227 219 216 210 201 194 189 191 192 193 189 189 186 185 183 175 177 177 187 195 195 183 184 185 185 187 186 181 181 184 187 202 206 198 200 207 240
208 183 176 179 171 184 208 198 265 226 229 234 226 218 215 208 196 190 187 187 186 180 181 186 184 185 183 180 182 183 188 187 168 159 160 167 161 164 164 163 161 163 167 177 171 177 187 197 223
161 98 77 82 120 218 212 186 252 222 211 222 221 215 209 197 184 176 167 155 158 159 168 176 179 184 183 183 183 185 183 174 164 160 158 154 136 118 114 121 127 132 134 140 151 148 154 178 216
165 141 137 169 207 233 198 201 243 239 222 219 215 206 195 180 169 165 161 159 160 163 170 174 173 177 179 181 183 183 179 174 171 163 159 148 133 115 105 105 102 98 98 95 96 97 87 87 91
187 171 169 178 202 240 200 224 247 259 275 264 218 180 168 172 171 169 167 161 162 165 167 168 168 164 165 168 168 163 156 150 145 141 136 129 120 113 100 93 89 83 81 79 78 75 65 55 46
167 194 170 130 119 176 233 264 296 266 270 238 175 168 181 179 172 165 159 155 155 155 161 163 154 146 144 142 137 134 132 128 123 117 110 109 107 102 92 89 85 76 70 70 76 72 58 52 42
165 154 127 144 161 217 251 241 233 224 229 222 207 198 189 176 166 159 154 150 144 138 128 125 132 130 127 125 123 120 117 116 116 114 111 107 101 97 96 90 86 79 72 70 74 69 53 54 39
152 162 158 159 176 173 221 255 220 209 211 210 211 199 184 178 171 162 151 141 130 120 118 117 119 118 117 116 114 111 109 109 108 107 107 108 102 100 98 97 91 83 75 70 73 68 55 51 36
178 178 162 178 207 191 188 262 255 223 244 218 205 188 178 171 163 156 147 138 131 129 126 122 120 116 114 114 111 110 110 108 107 106 105 104 102 97 98 97 92 86 79 74 75 68 54 47 32